Home   Weather   Zielona Góra   Past weeks

Flag for Poland Past Weather in Zielona Góra, Poland — Yesterday and Last 2 Weeks

Now
67 °F

Partly sunny.


Feels Like: 67 °F
Forecast: 49 / 67 °F
Wind: 3 mph from Southeast

Location: Zielona Gora

Current Time: Sep 25, 2016 at 5:52:57 PM

Latest Report: Sep 25, 2016 at 5:00 PM


Visibility: 25 mi

Pressure: 30.16 "Hg

Humidity: 47%

Dew Point: 46 °F

Location of Zielona GóraLocation

Past Weather in Zielona Góra — Graph

°F

Zielona Góra Temperature Yesterday

Maximum temperature yesterday: 66 °F (at 3:00 PM)
Minimum temperature yesterday: 54 °F (at 8:00 AM)
Average temperature yesterday: 60 °F

High & Low Weather Summary for the Past Weeks

 TemperatureHumidityPressure
High86 °F (Sep 12, 4:00 PM)88% (Sep 19, 1:00 AM)30.31 "Hg (Sep 19, 1:00 AM)
Low47 °F (Sep 22, 5:00 AM)33% (Sep 14, 2:00 PM)29.82 "Hg (Sep 17, 5:00 AM)
Average64 °F60%30.08 "Hg
* Reported Sep 10 4:00 PM — Sep 25 4:00 PM, Zielona Góra, Weather by CustomWeather, © 2016

Note: Actual official high and low records may vary slightly from our data, if they occured in-between our weather recording intervals... More about our weather records

Advertising

Zielona Góra Weather History for the Previous 24 Hours

Scroll right to see more
 ConditionsComfort  
Time TempWeatherWind HumidityBarometerVisibility
4:00 PM
Sun, Sep 25
67 °FScattered clouds.3 mph46%30.17 "Hg19 mi
3:00 PM67 °FScattered clouds.2 mph49%30.18 "Hg22 mi
2:00 PM68 °FPartly sunny.3 mph50%30.19 "Hg19 mi
1:00 PM67 °FPartly sunny.3 mph52%30.21 "Hg16 mi
12:00 PM65 °FPartly sunny.5 mph56%30.23 "Hg12 mi
11:00 AM61 °FPartly sunny.2 mph66%30.24 "Hg9 mi
10:00 AM57 °FPartly sunny.3 mph73%30.26 "Hg6 mi
9:00 AM55 °FPartly sunny.2 mph77%30.26 "Hg6 mi
8:00 AM51 °FOvercast.2 mph84%30.26 "Hg6 mi
7:00 AM51 °FPartly sunny.2 mph85%30.26 "Hg6 mi
6:00 AM51 °FPassing clouds.2 mph81%30.25 "Hg22 mi
5:00 AM52 °FClear.2 mph76%30.26 "Hg25 mi
4:00 AM54 °FClear.2 mph70%30.26 "Hg25 mi
3:00 AM55 °FPassing clouds.2 mph68%30.27 "Hg28 mi
2:00 AM55 °FClear.2 mph68%30.27 "Hg31 mi
1:00 AM54 °FClear.2 mph70%30.28 "Hg31 mi
12:00 AM54 °FPassing clouds.2 mph69%30.28 "Hg31 mi
11:00 PM
Sat, Sep 24
57 °FClear.1 mph61%30.28 "Hg31 mi
10:00 PM58 °FPassing clouds.2 mph58%30.27 "Hg31 mi
9:00 PM59 °FClear.2 mph59%30.28 "Hg31 mi
8:00 PM60 °FPassing clouds.2 mph57%30.27 "Hg31 mi
7:00 PM61 °FPassing clouds.1 mph56%30.27 "Hg31 mi
6:00 PM64 °FPartly sunny.2 mph50%30.26 "Hg31 mi
5:00 PM66 °FPartly sunny.3 mph47%30.26 "Hg28 mi
Weather by CustomWeather, © 2016

See weather overviewHow to use our weather pages